DMSP 5D-2 F13 DEB, 40416

Orbit data source: Space-Track

DMSP 5D-2 F13 DEB, 40416 is space debris in SSO originally from a launch on Fri, 24 Mar 1995 UTC launched from the Air Force Western Test Range (AFWTR). Debris objects in space refer to the collection of defunct objects orbiting the Earth. Examples of debris include non-operational satellites, rocket bodies, and fragments generated from explosions, collisions, or faulty payload assembly.

Loading next visibility...
Identifier
40416, 1995-015AD
Orbit
SSO
Country
Flag of USUS
Related business
Manufacturer
Unknown
Mission
Spacecraft
Bus & Motor
Unknown
Mass
Unknown
Launch date (UTC)
1995-03-24 (31 years ago)
Launch vehicle
Unknown
Launch site
Air Force Western Test Range (AFWTR)
Object type
Payload
Rocket body
Debris
Shape & HBR
Unknown shape, 0.1 m
Radar Cross Section
Small (<0.1 m²)

Expand to show TLE details & history
Last TLE update: 1 day ago

TLE from 1 day ago
0 DMSP 5D-2 F13 DEB
1 40416U 95015AD  25346.00115122  .00003603  00000-0  14886-2 0  9998
2 40416  98.7544   6.9635 0004318 274.8093  85.2594 14.27341959559043
Epoch: 2025-12-12T00:01Z
TLE epoch observation values (Epoch: 2025-12-12T00:01:39.465Z)
Latitude
-0.00005°
Longitude
-74.39998°
Altitude
803.298 km
Speed
7.452 km/s
True Right ascension
00h 27m 51s
True Declination
0° 00' 00"
Sunlit
Object was in daylight at epoch
Visualization orbit readout
Latitude
Unknown
Longitude
Unknown
Altitude
Unknown
Speed
Unknown
Apparent Right ascension
Unknown
Apparent Declination
Unknown
Sunlit
N/A
Visualization observer readout
Local Sidereal Time
05:22:28
Azimuth
Unknown
Elevation
Unknown
Doppler factor
Unknown
Orbital elements
Apogee altitude
800.879 km
Perigee altitude
794.682 km
Semi-major axis
7,175.917 km
Eccentricity
0.00043
Inclination
98.7544°
RAAN
6.9635°
Arg. of periapsis
274.8093°
True anomaly
85.30871°
Mean anomaly
85.2594°
Eccentric anomaly
85.28406°
Mean motion
3.57048 °/min
Orbital period
100.83 mins
BSTAR
0.0014886

Documentation

Showing up to 5 results
|